Change the Weather History Date:

Friday, January 17, 2014

  Actual Average Record
Temperature  
Mean Temperature 20 °F 13 °F  
Max Temperature 29 °F 25 °F 49 °F (1990)
Min Temperature 10 °F 1 °F -27 °F (2011)
Degree Days  
Heating Degree Days 45 52  
Month to date heating degree days 829 875  
Since 1 July heating degree days 4667 4574  
Cooling Degree Days 0 0  
Month to date cooling degree days 0  
Year to date cooling degree days 0  
Moisture  
Dew Point 19 °F    
Average Humidity 86    
Maximum Humidity 96    
Minimum Humidity 75    
Precipitation  
Precipitation T in 0.06 in 0.90 in (1959)
Month to date precipitation 1.49 1.14  
Year to date precipitation 1.49 1.14  
Sea Level Pressure  
Sea Level Pressure 29.82 in    
Wind  
Wind Speed 6 mph (SW)    
Max Wind Speed 18 mph    
Max Gust Speed 23 mph    
Visibility 8 miles    
Events Snow    
T = Trace of Precipitation, MM = Missing Value Source: NWS Daily Summary

Daily Weather History Graph

Daily Weather History Graph

Search for Another Location

Airport or City:

Trip Planner

Search our weather history database for the weather conditions in past years. The results will help you decide how hot, cold, wet, or windy it might be!

Date:

Astronomy

Jan. 17, 2014 Rise Set
Actual Time 7:28 AM EST 4:45 PM EST
Civil Twilight 6:56 AM EST 5:18 PM EST
Nautical Twilight 6:20 AM EST 5:53 PM EST
Astronomical Twilight 5:45 AM EST 6:28 PM EST
Moon 6:35 PM EST (1/17) 7:49 AM EST (1/17)
Length of Visible Light 10h 21m
Length of Day
9h 17m
Full, 98% of the Moon is Illuminated
Jan 17
Full
Jan 24
Last Quarter
Jan 30
New
Feb 6
First Quarter
Feb 14
Full

Hourly Weather History & Observations

Time (EST) Temp. Windchill Dew Point Humidity Pressure Visibility Wind Dir Wind Speed Gust Speed Precip Events Conditions
12:07 AM 16.0 °F - 14.0 °F 92% 29.82 in 10.0 mi Calm Calm - N/A   Mostly Cloudy
12:22 AM 16.0 °F - 14.0 °F 92% 29.81 in 10.0 mi Calm Calm - N/A   Overcast
12:51 AM 16.0 °F - 14.0 °F 92% 29.88 in 10.0 mi Calm Calm - N/A   Mostly Cloudy
1:10 AM 17.1 °F - 15.1 °F 92% 29.79 in 10.0 mi Calm Calm - N/A   Mostly Cloudy
1:51 AM 18.0 °F - 16.0 °F 92% 29.87 in 10.0 mi Calm Calm - N/A   Mostly Cloudy
2:51 AM 15.1 °F - 12.0 °F 88% 29.87 in 9.0 mi Calm Calm - N/A   Partly Cloudy
3:51 AM 12.0 °F - 9.0 °F 88% 29.88 in 10.0 mi Calm Calm - N/A   Clear
4:51 AM 10.0 °F 3.6 °F 7.0 °F 87% 29.86 in 10.0 mi North 3.5 mph - N/A   Clear
5:51 AM 10.0 °F - 7.0 °F 87% 29.86 in 10.0 mi Calm Calm - N/A   Scattered Clouds
6:51 AM 14.0 °F - 10.9 °F 88% 29.86 in 10.0 mi Calm Calm - N/A   Overcast
8:51 AM 19.9 °F - 18.0 °F 92% 29.85 in 10.0 mi Calm Calm - N/A   Overcast
9:51 AM 23.0 °F - 19.9 °F 88% 29.86 in 10.0 mi Calm Calm - N/A   Overcast
10:51 AM 28.0 °F 18.6 °F 21.0 °F 75% 29.83 in 10.0 mi SW 10.4 mph - N/A   Scattered Clouds
11:43 AM 28.0 °F 16.1 °F 21.0 °F 75% 29.74 in 10.0 mi SSW 16.1 mph - N/A   Overcast
11:51 AM 28.0 °F 17.0 °F 21.0 °F 75% 29.81 in 10.0 mi SW 13.8 mph - N/A   Overcast
12:51 PM 28.0 °F 18.1 °F 23.0 °F 81% 29.80 in 4.0 mi SSW 11.5 mph - N/A   Haze
1:51 PM 28.0 °F 17.0 °F 23.0 °F 81% 29.81 in 2.5 mi SW 13.8 mph - 0.00 in Snow Light Snow
2:22 PM 28.0 °F 17.5 °F 23.0 °F 81% 29.74 in 3.0 mi SSW 12.7 mph - 0.00 in Snow Light Snow
2:38 PM 28.0 °F 17.0 °F 23.0 °F 81% 29.75 in 2.5 mi SW 13.8 mph - 0.00 in Snow Light Snow
2:48 PM 28.4 °F 18.5 °F 23.0 °F 80% 29.75 in 1.5 mi SSW 11.5 mph - 0.00 in Snow Light Snow
2:51 PM 28.0 °F 18.1 °F 23.0 °F 81% 29.83 in 1.8 mi SW 11.5 mph - 0.00 in Snow Light Snow
2:58 PM 28.0 °F 18.6 °F 23.0 °F 81% 29.75 in 2.5 mi SW 10.4 mph - 0.00 in Snow Light Snow
3:12 PM 28.0 °F 18.6 °F 23.0 °F 81% 29.76 in 4.0 mi SSW 10.4 mph - 0.00 in Snow Light Snow
3:48 PM 28.4 °F 18.5 °F 21.2 °F 74% 29.76 in 9.0 mi SSW 11.5 mph - 0.00 in   Overcast
3:51 PM 28.0 °F 17.0 °F 21.9 °F 78% 29.84 in 10.0 mi SSW 13.8 mph - 0.00 in   Overcast
4:51 PM 28.0 °F 20.0 °F 21.0 °F 75% 29.85 in 10.0 mi SSW 8.1 mph - N/A   Overcast
5:51 PM 28.9 °F 20.4 °F 21.0 °F 72% 29.85 in 10.0 mi SSW 9.2 mph - N/A   Overcast
6:51 PM 28.9 °F 19.8 °F 21.0 °F 72% 29.85 in 10.0 mi SW 10.4 mph - N/A   Overcast
7:51 PM 28.9 °F 21.1 °F 21.0 °F 72% 29.86 in 10.0 mi SW 8.1 mph - 0.00 in   Overcast
8:51 PM 28.0 °F 20.8 °F 21.0 °F 75% 29.86 in 8.0 mi SW 6.9 mph - 0.00 in Snow Light Snow
9:51 PM 26.1 °F 16.8 °F 21.9 °F 84% 29.86 in 9.0 mi SW 9.2 mph - 0.00 in   Overcast
10:28 PM 27.0 °F 19.5 °F 23.0 °F 85% 29.80 in 1.8 mi SW 6.9 mph - 0.00 in Snow Light Snow
10:35 PM 26.1 °F 19.4 °F 24.1 °F 92% 29.80 in 1.5 mi SW 5.8 mph - 0.00 in Snow Light Snow
10:40 PM 26.1 °F 20.5 °F 23.0 °F 88% 29.80 in 3.0 mi SSW 4.6 mph - 0.00 in Snow Light Snow
10:51 PM 25.0 °F 19.3 °F 23.0 °F 92% 29.86 in 8.0 mi SW 4.6 mph - 0.00 in   Mostly Cloudy
11:12 PM 23.0 °F 18.4 °F 21.9 °F 96% 29.79 in 8.0 mi SSW 3.5 mph - N/A   Mostly Cloudy
11:51 PM 19.0 °F - 19.0 °F 100% 29.85 in 7.0 mi Calm Calm - N/A   Scattered Clouds